This is the latest recevied weather packets stored in our database for station/object VE1DX. If no packets are shown the sender has not sent any weather packets the latest 10 day(s).
| Time | Temp. | Humidity | Pressure | Rain* | Wind** | Luminosity | Snow |
|---|---|---|---|---|---|---|---|
| 1778174716 | 8.89° C | 94% | 1004 hPa | 1.02 mm | - | - | - |
| 1778174416 | 8.89° C | 94% | 1003.7 hPa | 1.52 mm | - | - | - |
| 1778174116 | 9.44° C | 94% | 1003.2 hPa | 1.78 mm | - | - | - |
| 1778173816 | 9.44° C | 94% | 1003.4 hPa | 3.05 mm | - | - | - |
| 1778173516 | 9.44° C | 94% | 1003.5 hPa | 4.32 mm | - | - | - |
| 1778173216 | 9.44° C | 94% | 1003.6 hPa | 5.84 mm | - | - | - |
| 1778172916 | 9.44° C | 94% | 1003.8 hPa | 7.62 mm | - | - | - |
| 1778172616 | 9.44° C | 94% | 1003.9 hPa | 7.87 mm | - | - | - |
| 1778172316 | 9.44° C | 94% | 1003.4 hPa | 8.89 mm | - | - | - |
| 1778172016 | 9.44° C | 94% | 1003.4 hPa | 9.65 mm | - | - | - |
| 1778171716 | 9.44° C | 94% | 1003.6 hPa | 10.41 mm | - | - | - |
| 1778171416 | 9.44° C | 94% | 1003.6 hPa | 10.92 mm | - | - | - |
| 1778171116 | 9.44° C | 94% | 1003.5 hPa | 10.92 mm | - | - | - |
| 1778170816 | 9.44° C | 94% | 1003.4 hPa | 10.92 mm | - | - | - |
| 1778170516 | 9.44° C | 94% | 1004 hPa | 10.67 mm | - | - | - |
| 1778170216 | 9.44° C | 94% | 1004.6 hPa | 9.65 mm | - | - | - |
| 1778169916 | 9.44° C | 94% | 1005 hPa | 8.13 mm | - | - | - |
| 1778169616 | 9.44° C | 94% | 1004.8 hPa | 6.6 mm | - | - | - |
| 1778169316 | 9.44° C | 94% | 1004.3 hPa | 4.83 mm | - | - | - |
| 1778169016 | 9.44° C | 94% | 1004.3 hPa | 4.32 mm | - | - | - |
| 1778168716 | 9.44° C | 94% | 1004.6 hPa | 3.56 mm | - | - | - |
| 1778168416 | 9.44° C | 94% | 1004.3 hPa | 3.05 mm | - | - | - |
| 1778168116 | 9.44° C | 94% | 1004.7 hPa | 2.03 mm | - | - | - |
| 1778167816 | 9.44° C | 94% | 1004.7 hPa | 1.52 mm | - | - | - |
| 1778167516 | 9.44° C | 94% | 1004.9 hPa | 1.52 mm | - | - | - |
* Rain latest hour (hover to see other rain measurements)
** Current wind speed in m/s (hover to see current wind gust speed)